Regional Weather Roundup
Issued by NWS Mobile, AL

Home | Current Version | Previous Version | Text Only | Print | Product List | Glossary On
Versions: 1 2 3 4 5 6 7 8 9 10 11 12 13 14 15 16 17 18 19 20 21 22 23 24 25 26 27 28 29 30 31 32 33 34 35 36 37 38 39 40 41 42 43 44 45 46 47 48 49 50
000
ASUS44 KMOB 271112
RWRMOB
REGIONAL WEATHER ROUNDUP
NATIONAL WEATHER SERVICE MOBILE AL
600 AM CDT WED JUL 27 2016

NOTE: "FAIR" INDICATES FEW OR NO CLOUDS BELOW 12,000 FEET WITH NO
      SIGNIFICANT WEATHER AND/OR OBSTRUCTIONS TO VISIBILITY.

  * THESE STATIONS ARE PART OF THE UNIVERSITY OF SOUTH ALABAMA
    MESONET AND ARE NOT UNDER NWS OR FAA QUALITY CONTROL.

ALZ061>064-271200-
COASTAL ALABAMA

CITY           SKY/WX    TMP DP  RH WIND       PRES   REMARKS
MOBILE REG APT PTCLDY    74  72  93 CALM      30.02R
BROOKLEY FIELD CLEAR     75  74  96 S3        30.02S
USA CAMPUS*    NOT AVBL
DOG RIVER*     NOT AVBL


CITY           SKY/WX    TMP DP  RH WIND       PRES   REMARKS
MOUNT VERNON*  NOT AVBL
SARALAND*      NOT AVBL
BAY MINETTE*   NOT AVBL
LOXLEY*        NOT AVBL
ROBERTSDALE*   NOT AVBL
FAIRHOPE*      NOT AVBL
ELBERTA*       NOT AVBL
FOLEY*         NOT AVBL
GRAND BAY*     NOT AVBL
DAUPHIN ISLND* NOT AVBL
BON SCOUR NWR* NOT AVBL
GULF SHORES    CLOUDY    77  75  93 CALM      30.01R

$$

ALZ051>060-271200-
INTERIOR SOUTHWEST AND SOUTH CENTRAL ALABAMA

CITY           SKY/WX    TMP DP  RH WIND       PRES   REMARKS
GREENVILLE     CLOUDY    75  72  90 S5        30.03R FOG
EVERGREEN      MOCLDY    73  72  96 CALM      30.04R
CASTLEBERRY*   NOT AVBL
ATMORE*        NOT AVBL
DIXIE*         NOT AVBL
ANDALUSIA/OPP  CLEAR     77  72  84 SE3       30.04R
ANDALUSIA*     NOT AVBL
FLORALA APT    CLEAR     73  71  93 CALM      30.06R
FLORALA*       NOT AVBL

$$

FLZ001>006-271200-
WESTERN FLORIDA PANHANDLE

CITY           SKY/WX    TMP DP  RH WIND       PRES   REMARKS
PENSACOLA      PTCLDY    79  73  82 CALM      30.02R
NAS PENSACOLA  PTCLDY    77  72  84 CALM      30.01R
MILTON         PTCLDY    73  73 100 SE3       30.03R
WHTNG S FIELD  CLEAR     77  76  96 CALM      30.03R


CITY           SKY/WX    TMP DP  RH WIND       PRES   REMARKS
WALNUT HILL*   NOT AVBL
JAY*           NOT AVBL
DUKE FIELD     CLEAR     73  72  95 CALM      30.02R
CRESTVIEW      CLEAR     71  70  96 CALM      30.05R
VALPARAISO     PTCLDY    76  73  90 NE1       30.03R
DESTIN         CLEAR     85  73  67 SW3       30.03R

$$

MSZ076-079-271200-
INTERIOR SOUTHEAST MISSISSIPPI

CITY           SKY/WX    TMP DP  RH WIND       PRES   REMARKS
LEAKESVILLE*   NOT AVBL
AGRICOLA*      NOT AVBL

$$

MARINE OBSERVATIONS

STATION/POSITION TIME  TEMP    WIND        PRES    WAVE
                       AIR SEA DIR/SP/G            HT/PER
                 (UTC) (F)     (DEG/KT/KT) (MB)    (FT/S)
PASCAGOULA       1000   83     200/  7/ 11 1015.2R
PETIT BOIS ISLND 1000   83     200/ 13/ 16 1016.1R
GRAND BAY        0900   83     210/ 10     1017.0R
KATRINA CUT      1000   83     210/ 12     1016.3R
CEDAR POINT      1000   83     210/ 12     1015.6R
E DAUPHIN ISLAND 1000   83     200/  7/ 10 1015.5R
MIDDLE BAY LIGHT 1000   84     200/ 14     1015.9R
USCG MOBILE BAY  1000   78 87  240/  3/  4 1016.5R
STATE DOCKS      1000   81 87              1015.8R
MEAHER PARK      1000   83     210/ 10     1015.6R
WEEKS BAY        0900   82                   N/A
FORT MORGAN      1000   83     210/ 12/ 14 1015.3R
12 S ORANGE BCH  1050   85 87  220/  8/ 10 1016.4R   3/ 5
PENSACOLA BAY    1000   83 87  220/  6/ 10 1016.3R
64 S DAUPHIN ISL 1000   84 85  180/  8/ 10 1015.6R
67 S FORT MORGAN 1030   83     200/ 10     1016.3R

$$

SELECTED LOCATIONS ACROSS THE REGION

CITY           SKY/WX    TMP DP  RH WIND       PRES   REMARKS
NEW ORLEANS    CLOUDY    78  73  84 W5        30.00R
GULFPORT       MOCLDY    82  74  76 S5        29.99R
PASCAGOULA AP  PTCLDY    74  74 100 CALM      30.00R
PASCAGOULA*    NOT AVBL
HATTIESBURG    MOCLDY    75  73  93 S3        30.01R
LAUREL         CLOUDY    73  72  94 S6        30.01R
MERIDIAN       CLOUDY    78  74  87 S8        29.98R
JACKSON        CLOUDY    77  73  87 S7        29.95R
MONTGOMERY     PTCLDY    76  72  87 S3        30.02S
TROY           CLEAR     72  72 100 CALM      30.05R FOG
KINSTON*       NOT AVBL
GENEVA*        NOT AVBL
ASHFORD*       NOT AVBL
DOTHAN         CLEAR     74  73  97 S5        30.08R
PANAMA CITY    CLEAR     75  73  93 CALM      30.04R

$$




USA.gov is the U.S. government's official web portal to all federal, state and local government web resources and services.